EW5168 Weather Reports


Display with metric or nautical units.
time (UTC)temp
F
wind
direction
speed
MPH
gust
MPH
rain 1hr
in
rain 24hr
in
rain mn
in
humidity
%
barometer
mb
20260901114132 77 169 0.0 0.0 0.00 0.00 0.00 1 1016.2
20260901113631 77 169 0.0 0.0 0.00 0.00 0.00 1 1016.3
20260901113130 77 169 0.0 0.0 0.00 0.00 0.00 1 1016.3
20260901112630 77 169 0.0 0.0 0.00 0.00 0.00 1 1016.4
20260901112131 78 169 0.0 0.0 0.00 0.00 0.00 1 1016.3
20260901111631 78 169 0.0 0.0 0.00 0.00 0.00 1 1016.3
20260901111133 78 169 0.0 1.0 0.00 0.00 0.00 1 1016.3
20260901110631 78 169 0.0 1.0 0.00 0.00 0.00 1 1016.3
20260901110132 78 169 0.0 1.0 0.00 0.00 0.00 1 1016.2
20260901105630 78 169 0.0 1.0 0.00 0.00 0.00 1 1016.2
20260901105130 78 169 0.0 1.0 0.00 0.00 0.00 1 1016.2
20260901104635 79 169 0.0 1.0 0.00 0.00 0.00 1 1016.0
20260901104631 78 169 0.0 1.0 0.00 0.00 0.00 1 1016.1
20260901103631 79 169 0.0 1.0 0.00 0.00 0.00 1 1016.0
20260901103130 79 169 0.0 0.0 0.00 0.00 0.00 1 1015.9
20260901102630 79 169 0.0 1.0 0.00 0.00 0.00 1 1015.9
20260901102135 79 169 0.0 2.0 0.00 0.00 0.00 1 1015.8
20260901102130 79 169 0.0 1.0 0.00 0.00 0.00 1 1015.9
20260901101132 79 169 0.0 2.0 0.00 0.00 0.00 1 1015.9
20260901100632 79 169 0.0 2.0 0.00 0.00 0.00 1 1015.8
20260901100132 80 169 0.0 2.0 0.00 0.00 0.00 1 1015.8
20260901095632 80 169 1.0 4.0 0.00 0.00 0.00 1 1015.9
20260901095131 80 186 2.0 4.0 0.00 0.00 0.00 1 1016.0
20260901094631 80 183 2.0 4.0 0.00 0.00 0.00 1 1016.0
20260901094131 80 167 1.0 5.0 0.00 0.00 0.00 1 1015.9
20260901093632 80 146 1.0 5.0 0.00 0.00 0.00 1 1015.9
20260901093137 80 180 2.0 4.0 0.00 0.00 0.00 1 1015.9
20260901093133 80 190 1.0 4.0 0.00 0.00 0.00 1 1016.0
20260901092131 80 166 2.0 4.0 0.00 0.00 0.00 1 1016.0
20260901091631 80 182 1.0 4.0 0.00 0.00 0.00 1 1016.0
20260901091134 81 169 1.0 4.0 0.00 0.00 0.00 1 1015.9
20260901091130 81 186 1.0 4.0 0.00 0.00 0.00 1 1015.9
20260901090131 81 149 2.0 4.0 0.00 0.00 0.00 1 1015.9
20260901085630 81 165 2.0 6.0 0.00 0.00 0.00 1 1015.8
20260901085128 81 168 2.0 7.0 0.00 0.00 0.00 1 1015.8
20260901084631 81 167 2.0 7.0 0.00 0.00 0.00 1 1015.7
20260901084627 81 175 2.0 5.0 0.00 0.00 0.00 1 1015.8
20260901083627 82 138 3.0 5.0 0.00 0.00 0.00 1 1015.7
20260901083126 82 189 3.0 6.0 0.00 0.00 0.00 1 1015.7
20260901082626 82 172 3.0 8.0 0.00 0.00 0.00 1 1015.7
20260901082125 82 195 3.0 9.0 0.00 0.00 0.00 1 1015.7
20260901081631 82 159 3.0 7.0 0.00 0.00 0.00 1 1015.7
20260901081626 82 221 3.0 9.0 0.00 0.00 0.00 1 1015.7
20260901080629 82 195 2.0 6.0 0.00 0.00 0.00 1 1015.6
20260901080625 82 211 3.0 7.0 0.00 0.00 0.00 1 1015.6
20260901075623 83 161 3.0 7.0 0.00 0.00 0.00 1 1015.7
20260901075121 83 178 3.0 9.0 0.00 0.00 0.00 1 1015.6
20260901074620 83 186 3.0 9.0 0.00 0.00 0.00 1 1015.6
20260901074118 83 197 3.0 10.0 0.00 0.00 0.00 1 1015.6
20260901073618 83 153 3.0 10.0 0.00 0.00 0.00 1 1015.6
20260901073118 83 181 3.0 9.0 0.00 0.00 0.00 1 1015.6
20260901072618 83 156 3.0 9.0 0.00 0.00 0.00 1 1015.7
20260901072118 83 165 3.0 8.0 0.00 0.00 0.00 1 1015.6
20260901071620 83 143 3.0 9.0 0.00 0.00 0.00 1 1015.6
20260901071616 83 154 3.0 8.0 0.00 0.00 0.00 1 1015.6
20260901070616 83 142 3.0 9.0 0.00 0.00 0.00 1 1015.6
20260901070116 83 126 3.0 8.0 0.00 0.00 0.00 1 1015.6
20260901065614 83 163 3.0 9.0 0.00 0.00 0.00 1 1015.6
20260901065114 83 131 3.0 9.0 0.00 0.00 0.00 1 1015.6
20260901064614 83 131 3.0 6.0 0.00 0.00 0.00 1 1015.6
20260901064114 84 187 3.0 8.0 0.00 0.00 0.00 2 1015.6
20260901063616 84 198 3.0 7.0 0.00 0.00 0.00 6 1015.5
20260901063612 84 164 3.0 8.0 0.00 0.00 0.00 4 1015.5
20260901062612 84 159 3.0 7.0 0.00 0.00 0.00 8 1015.5
20260901062112 84 153 3.0 6.0 0.00 0.00 0.00 9 1015.5
20260901061616 84 163 2.0 7.0 0.00 0.00 0.00 15 1015.4
20260901061612 84 188 2.0 7.0 0.00 0.00 0.00 12 1015.4
20260901060616 84 136 2.0 6.0 0.00 0.00 0.00 22 1015.4
20260901060612 84 168 2.0 6.0 0.00 0.00 0.00 18 1015.4
20260901055612 84 165 2.0 7.0 0.00 0.00 0.00 25 1015.4
20260901055113 84 178 2.0 7.0 0.00 0.00 0.00 27 1015.4
20260901054613 84 165 1.0 6.0 0.00 0.00 0.00 29 1015.3
20260901054110 85 167 1.0 5.0 0.00 0.00 0.00 31 1015.3
20260901053610 85 173 1.0 4.0 0.00 0.00 0.00 33 1015.2
20260901053109 85 142 1.0 5.0 0.00 0.00 0.00 34 1015.2
20260901052612 85 132 2.0 7.0 0.00 0.00 0.00 37 1015.1
20260901052608 85 159 2.0 5.0 0.00 0.00 0.00 35 1015.1
20260901051610 85 175 3.0 7.0 0.00 0.00 0.00 38 1015.1
20260901051106 85 173 3.0 6.0 0.00 0.00 0.00 40 1015.0
20260901050610 86 159 2.0 9.0 0.00 0.00 0.00 43 1014.8
20260901050606 86 137 3.0 9.0 0.00 0.00 0.00 41 1014.9
20260901045604 86 181 2.0 7.0 0.00 0.00 0.00 43 1014.9
20260901045108 86 135 3.0 10.0 0.00 0.00 0.00 43 1014.8
20260901045104 86 137 3.0 10.0 0.00 0.00 0.00 43 1014.8
20260901044107 86 163 3.0 10.0 0.00 0.00 0.00 43 1014.8
20260901044103 86 188 3.0 9.0 0.00 0.00 0.00 43 1014.8
20260901043107 85 167 1.0 6.0 0.00 0.00 0.00 43 1014.7
20260901043103 85 152 2.0 10.0 0.00 0.00 0.00 44 1014.8
20260901042101 85 165 1.0 3.0 0.00 0.00 0.00 42 1014.6
20260901041601 85 178 1.0 4.0 0.00 0.00 0.00 42 1014.6
20260901041101 85 160 1.0 4.0 0.00 0.00 0.00 42 1014.6
20260901040604 85 174 1.0 4.0 0.00 0.00 0.00 42 1014.5
20260901040600 85 182 1.0 3.0 0.00 0.00 0.00 42 1014.5
20260901035559 85 170 1.0 4.0 0.00 0.00 0.00 42 1014.5
20260901035059 85 151 1.0 3.0 0.00 0.00 0.00 42 1014.5
20260901034559 85 171 1.0 3.0 0.00 0.00 0.00 42 1014.5
20260901034057 85 187 1.0 4.0 0.00 0.00 0.00 42 1014.5
20260901033558 85 175 1.0 4.0 0.00 0.00 0.00 42 1014.4
20260901033055 86 192 1.0 3.0 0.00 0.00 0.00 42 1014.5
20260901032555 86 171 1.0 4.0 0.00 0.00 0.00 42 1014.4
20260901032053 86 164 1.0 4.0 0.00 0.00 0.00 42 1014.3
20260901031551 86 187 1.0 2.0 0.00 0.00 0.00 42 1014.3
20260901031052 86 153 1.0 2.0 0.00 0.00 0.00 42 1014.3
20260901030551 86 170 0.0 2.0 0.00 0.00 0.00 42 1014.3
20260901030053 87 157 1.0 3.0 0.00 0.00 0.00 41 1014.1
20260901030049 87 154 1.0 2.0 0.00 0.00 0.00 41 1014.2
20260901025047 87 167 1.0 3.0 0.00 0.00 0.00 41 1014.1
20260901024548 87 174 1.0 3.0 0.00 0.00 0.00 41 1014.1
20260901024047 87 169 1.0 3.0 0.00 0.00 0.00 41 1014.0
20260901023547 87 169 1.0 3.0 0.00 0.00 0.00 41 1014.0
20260901023049 87 151 0.0 2.0 0.00 0.00 0.00 41 1014.0
20260901023045 88 171 0.0 2.0 0.00 0.00 0.00 41 1013.9
20260901022045 88 171 0.0 2.0 0.00 0.00 0.00 41 1013.9
20260901021544 88 171 0.0 2.0 0.00 0.00 0.00 40 1013.7
20260901021045 89 171 0.0 2.0 0.00 0.00 0.00 40 1013.7
20260901020543 89 171 0.0 2.0 0.00 0.00 0.00 40 1013.7
20260901020043 89 171 0.0 1.0 0.00 0.00 0.00 40 1013.6
20260901015544 89 171 0.0 0.0 0.00 0.00 0.00 40 1013.5
20260901015046 90 171 0.0 1.0 0.00 0.00 0.00 40 1013.5
20260901015042 90 171 0.0 1.0 0.00 0.00 0.00 39 1013.4
20260901014041 91 171 0.0 1.0 0.00 0.00 0.00 39 1013.3
20260901013541 91 171 0.0 1.0 0.00 0.00 0.00 39 1013.3
20260901013041 92 171 0.0 1.0 0.00 0.00 0.00 38 1013.3
20260901012540 92 171 0.0 1.0 0.00 0.00 0.00 38 1013.3
20260901012040 92 171 0.0 1.0 0.00 0.00 0.00 37 1013.2
20260901011535 93 171 0.0 1.0 0.00 0.00 0.00 37 1013.2
20260901011035 93 136 0.0 1.0 0.00 0.00 0.00 37 1013.2
20260901010535 93 137 0.0 1.0 0.00 0.00 0.00 36 1013.2
20260901010033 94 172 0.0 3.0 0.00 0.00 0.00 36 1013.1
20260901005533 94 155 1.0 4.0 0.00 0.00 0.00 36 1013.1
20260901005033 94 155 1.0 4.0 0.00 0.00 0.00 35 1013.1
20260901004533 95 175 1.0 3.0 0.00 0.00 0.00 35 1013.0
20260901004033 95 127 0.0 2.0 0.00 0.00 0.00 35 1013.1
20260901003537 96 115 1.0 3.0 0.00 0.00 0.00 35 1013.0
20260901003533 95 169 1.0 3.0 0.00 0.00 0.00 35 1013.1
20260901002532 96 157 1.0 5.0 0.00 0.00 0.00 34 1013.0
20260901002032 96 135 2.0 5.0 0.00 0.00 0.00 33 1013.1
20260901001532 96 84 2.0 8.0 0.00 0.00 0.00 33 1013.1
20260901001033 96 96 2.0 8.0 0.00 0.00 0.00 33 1013.1
20260901000533 96 94 1.0 8.0 0.00 0.00 0.00 33 1013.0
20260901000037 97 104 2.0 6.0 0.00 0.00 0.00 33 1013.0
20260901000033 97 94 1.0 7.0 0.00 0.00 0.00 33 1013.0
20260831235033 97 82 2.0 4.0 0.00 0.00 0.00 32 1013.0
20260831234535 97 140 2.0 7.0 0.00 0.00 0.00 32 1013.0
20260831234531 98 206 2.0 7.0 0.00 0.00 0.00 33 1013.0
20260831234136 98 155 2.0 7.0 0.00 0.00 0.00 32 1013.0
20260831233030 98 135 2.0 7.0 0.00 0.00 0.00 31 1012.9
20260831232531 98 136 2.0 7.0 0.00 0.00 0.00 30 1013.0
20260831232031 98 96 3.0 11.0 0.00 0.00 0.00 30 1012.9
20260831231529 98 161 2.0 11.0 0.00 0.00 0.00 30 1012.9
20260831231028 98 176 2.0 7.0 0.00 0.00 0.00 30 1013.0
20260831230529 98 81 2.0 7.0 0.00 0.00 0.00 29 1013.0
20260831230031 99 77 3.0 9.0 0.00 0.00 0.00 29 1013.1
20260831225530 99 87 3.0 10.0 0.00 0.00 0.00 29 1013.2
20260831225029 99 154 2.0 10.0 0.00 0.00 0.00 29 1013.2
20260831224529 99 100 2.0 6.0 0.00 0.00 0.00 29 1013.2
20260831224026 99 193 2.0 6.0 0.00 0.00 0.00 30 1013.3
20260831223526 98 137 2.0 7.0 0.00 0.00 0.00 30 1013.2
20260831223028 98 96 3.0 10.0 0.00 0.00 0.00 29 1013.4
20260831223024 98 196 2.0 7.0 0.00 0.00 0.00 30 1013.2
20260831222024 99 99 2.0 10.0 0.00 0.00 0.00 29 1013.4
20260831221524 98 121 2.0 9.0 0.00 0.00 0.00 29 1013.3
20260831221023 98 225 1.0 5.0 0.00 0.00 0.00 30 1013.3
20260831220523 99 141 2.0 5.0 0.00 0.00 0.00 31 1013.3
20260831220022 99 84 2.0 8.0 0.00 0.00 0.00 31 1013.4
20260831215522 99 227 2.0 8.0 0.00 0.00 0.00 31 1013.5
20260831215022 99 103 2.0 8.0 0.00 0.00 0.00 31 1013.5
20260831214520 99 186 2.0 9.0 0.00 0.00 0.00 30 1013.5
20260831214020 100 146 3.0 9.0 0.00 0.00 0.00 30 1013.6
20260831213518 100 155 3.0 9.0 0.00 0.00 0.00 30 1013.6
20260831213020 100 84 2.0 6.0 0.00 0.00 0.00 30 1013.6
20260831213016 100 84 2.0 6.0 0.00 0.00 0.00 30 1013.6
20260831212620 101 307 2.0 6.0 0.00 0.00 0.00 31 1013.7
20260831211512 101 109 3.0 8.0 0.00 0.00 0.00 30 1013.7
20260831211017 101 156 2.0 9.0 0.00 0.00 0.00 30 1014.0
20260831211013 101 185 3.0 9.0 0.00 0.00 0.00 29 1013.9
20260831210011 100 55 3.0 9.0 0.00 0.00 0.00 28 1014.1
20260831205510 100 136 4.0 10.0 0.00 0.00 0.00 28 1014.1
20260831205013 101 132 4.0 14.0 0.00 0.00 0.00 30 1014.4
20260831205009 101 177 4.0 11.0 0.00 0.00 0.00 29 1014.3
20260831204008 100 221 4.0 14.0 0.00 0.00 0.00 31 1014.5
20260831203512 101 113 2.0 7.0 0.00 0.00 0.00 30 1014.7
20260831203508 100 207 3.0 9.0 0.00 0.00 0.00 30 1014.6
20260831202512 100 96 4.0 11.0 0.00 0.00 0.00 30 1014.8
20260831202508 101 106 3.0 11.0 0.00 0.00 0.00 31 1014.8
20260831201506 100 152 3.0 10.0 0.00 0.00 0.00 30 1014.9
20260831201007 99 109 3.0 10.0 0.00 0.00 0.00 32 1014.9
20260831200505 99 135 3.0 10.0 0.00 0.00 0.00 31 1015.1
20260831200005 100 98 3.0 8.0 0.00 0.00 0.00 31 1015.1
20260831195504 100 229 3.0 7.0 0.00 0.00 0.00 31 1015.2
20260831195004 100 102 3.0 8.0 0.00 0.00 0.00 30 1015.2
20260831194504 99 145 3.0 9.0 0.00 0.00 0.00 33 1015.1
20260831194003 100 169 3.0 9.0 0.00 0.00 0.00 31 1015.4
20260831193502 99 165 3.0 9.0 0.00 0.00 0.00 32 1015.4
20260831193002 99 151 3.0 10.0 0.00 0.00 0.00 32 1015.4
20260831192502 99 198 3.0 10.0 0.00 0.00 0.00 31 1015.5
20260831192000 100 137 3.0 10.0 0.00 0.00 0.00 32 1015.5
20260831191459 98 107 3.0 10.0 0.00 0.00 0.00 34 1015.5
20260831190958 98 162 3.0 10.0 0.00 0.00 0.00 32 1015.6
20260831190458 99 95 3.0 11.0 0.00 0.00 0.00 32 1015.7
20260831190000 98 155 3.0 11.0 0.00 0.00 0.00 32 1015.7
20260831185956 99 119 3.0 11.0 0.00 0.00 0.00 32 1015.7
20260831184956 99 82 3.0 11.0 0.00 0.00 0.00 32 1015.8
20260831184455 99 128 3.0 8.0 0.00 0.00 0.00 32 1015.9
20260831183953 98 103 3.0 8.0 0.00 0.00 0.00 33 1015.9
20260831183453 98 105 3.0 14.0 0.00 0.00 0.00 32 1015.9
20260831182952 97 65 5.0 14.0 0.00 0.00 0.00 32 1016.0
20260831182450 97 184 5.0 14.0 0.00 0.00 0.00 32 1016.2
20260831181954 96 117 4.0 12.0 0.00 0.00 0.00 33 1016.2
20260831181950 97 128 4.0 12.0 0.00 0.00 0.00 32 1016.1
20260831180947 96 180 3.0 10.0 0.00 0.00 0.00 33 1016.3
20260831180448 96 94 4.0 12.0 0.00 0.00 0.00 32 1016.4
20260831175948 96 165 4.0 12.0 0.00 0.00 0.00 32 1016.5
20260831175448 95 168 5.0 13.0 0.00 0.00 0.00 33 1016.5
20260831174948 95 197 5.0 13.0 0.00 0.00 0.00 33 1016.7
20260831174448 95 153 4.0 11.0 0.00 0.00 0.00 32 1016.8
20260831173947 95 146 5.0 11.0 0.00 0.00 0.00 32 1016.8
20260831173447 94 173 5.0 11.0 0.00 0.00 0.00 32 1016.9
20260831172948 94 181 4.0 11.0 0.00 0.00 0.00 31 1017.1
20260831172448 94 201 3.0 11.0 0.00 0.00 0.00 31 1017.1
20260831171952 94 240 3.0 11.0 0.00 0.00 0.00 30 1017.1
20260831171947 94 180 2.0 9.0 0.00 0.00 0.00 30 1017.1
20260831171553 93 339 3.0 11.0 0.00 0.00 0.00 30 1017.1
20260831170448 93 175 3.0 6.0 0.00 0.00 0.00 29 1017.2
20260831165948 93 83 3.0 7.0 0.00 0.00 0.00 29 1017.3
20260831165447 93 157 3.0 8.0 0.00 0.00 0.00 29 1017.2
20260831164946 92 167 3.0 8.0 0.00 0.00 0.00 29 1017.3
20260831164450 92 148 3.0 11.0 0.00 0.00 0.00 28 1017.3
20260831164446 92 133 4.0 11.0 0.00 0.00 0.00 29 1017.2
20260831163448 91 199 3.0 10.0 0.00 0.00 0.00 26 1017.4
20260831163444 92 178 3.0 10.0 0.00 0.00 0.00 27 1017.4
20260831162446 91 191 2.0 7.0 0.00 0.00 0.00 24 1017.3
20260831162442 91 250 2.0 6.0 0.00 0.00 0.00 23 1017.3
20260831161441 91 243 2.0 6.0 0.00 0.00 0.00 23 1017.4
20260831160939 90 239 2.0 6.0 0.00 0.00 0.00 20 1017.3
20260831160439 90 196 2.0 7.0 0.00 0.00 0.00 18 1017.3
20260831155940 89 146 2.0 7.0 0.00 0.00 0.00 18 1017.3
20260831155439 89 152 2.0 7.0 0.00 0.00 0.00 16 1017.3
20260831154938 89 102 3.0 7.0 0.00 0.00 0.00 15 1017.3
20260831154437 89 203 3.0 9.0 0.00 0.00 0.00 15 1017.2
20260831153935 88 173 2.0 9.0 0.00 0.00 0.00 12 1017.2
20260831153435 88 177 2.0 8.0 0.00 0.00 0.00 3 1017.3
20260831152936 87 157 3.0 7.0 0.00 0.00 0.00 1 1017.1
20260831152435 87 163 2.0 7.0 0.00 0.00 0.00 1 1017.0
20260831151936 86 178 1.0 6.0 0.00 0.00 0.00 1 1017.0
20260831151436 86 147 2.0 6.0 0.00 0.00 0.00 1 1017.0
20260831150935 86 196 2.0 7.0 0.00 0.00 0.00 1 1017.0
20260831150437 85 212 3.0 7.0 0.00 0.00 0.00 1 1017.0
20260831145935 85 205 1.0 7.0 0.00 0.00 0.00 1 1017.0
20260831145542 82 179 2.0 8.0 0.00 0.00 0.00 1 1016.9
20260831145436 84 338 1.0 4.0 0.00 0.00 0.00 1 1017.1
20260831144935 84 194 1.0 4.0 0.00 0.00 0.00 1 1017.0
20260831144435 83 232 2.0 8.0 0.00 0.00 0.00 1 1017.0
20260831143939 83 234 2.0 8.0 0.00 0.00 0.00 1 1017.0
20260831143935 82 186 2.0 7.0 0.00 0.00 0.00 1 1016.9
20260831142436 81 211 1.0 8.0 0.00 0.00 0.00 1 1016.9
20260831142432 81 162 2.0 8.0 0.00 0.00 0.00 1 1016.9
20260831141431 81 206 2.0 5.0 0.00 0.00 0.00 1 1016.9
20260831140932 80 161 2.0 6.0 0.00 0.00 0.00 1 1016.8
20260831140427 80 190 2.0 6.0 0.00 0.00 0.00 1 1016.9
20260831135926 80 244 2.0 8.0 0.00 0.00 0.00 1 1016.8
20260831135430 80 197 3.0 8.0 0.00 0.00 0.00 1 1016.7
20260831135426 79 257 3.0 9.0 0.00 0.00 0.00 1 1016.7
20260831135031 79 179 2.0 9.0 0.00 0.00 0.00 1 1016.7
20260831133924 79 182 1.0 5.0 0.00 0.00 0.00 1 1016.6
20260831133421 78 169 2.0 5.0 0.00 0.00 0.00 1 1016.6
20260831132925 78 238 2.0 5.0 0.00 0.00 0.00 1 1016.5
20260831132921 78 207 2.0 8.0 0.00 0.00 0.00 1 1016.6
20260831131917 78 187 2.0 8.0 0.00 0.00 0.00 1 1016.5
20260831131417 77 155 2.0 6.0 0.00 0.00 0.00 1 1016.4
20260831130916 77 213 2.0 6.0 0.00 0.00 0.00 1 1016.4
20260831130415 77 157 3.0 8.0 0.00 0.00 0.00 1 1016.3
20260831125915 77 172 3.0 8.0 0.00 0.00 0.00 1 1016.2
20260831125415 76 159 3.0 6.0 0.00 0.00 0.00 1 1016.3
20260831124918 76 159 3.0 6.0 0.00 0.00 0.00 1 1016.1
20260831124914 76 167 2.0 6.0 0.00 0.00 0.00 1 1016.1
20260831123913 76 165 2.0 5.0 0.00 0.00 0.00 1 1016.1
20260831123412 76 184 2.0 5.0 0.00 0.00 0.00 1 1016.1
20260831122911 76 183 2.0 5.0 0.00 0.00 0.00 1 1016.1
20260831122411 76 165 2.0 5.0 0.00 0.00 0.00 1 1016.1
20260831121911 76 177 2.0 5.0 0.00 0.00 0.00 1 1016.1
20260831121412 76 168 2.0 7.0 0.00 0.00 0.00 1 1016.0
20260831120911 76 144 3.0 7.0 0.00 0.00 0.00 1 1015.9
20260831120413 76 198 2.0 6.0 0.00 0.00 0.00 1 1015.8
20260831115912 76 200 2.0 6.0 0.00 0.00 0.00 1 1015.8
20260831115411 76 175 2.0 6.0 0.00 0.00 0.00 1 1015.7
20260831115015 76 196 3.0 6.0 0.00 0.00 0.00 1 1015.6
20260831114915 76 165 3.0 6.0 0.00 0.00 0.00 1 1015.6
20260831114911 76 187 2.0 5.0 0.00 0.00 0.00 1 1015.7